| time (UTC) | temp F | wind direction | speed MPH | gust MPH | rain 1hr in | rain 24hr in | rain mn in | humidity % | barometer mb |
| 20260508223416 | 56 | 196 | 9.0 | 16.0 | 0.00 | 0.00 | 0.00 | 70 | 1019.1 |
| 20260508222429 | 57 | 218 | 8.0 | 14.0 | 0.00 | 0.00 | 0.00 | 69 | 1019.1 |
| 20260508221425 | 56 | 179 | 10.0 | 15.0 | 0.00 | 0.00 | 0.00 | 72 | 1019.1 |
| 20260508220354 | 56 | 189 | 10.0 | 15.0 | 0.00 | 0.00 | 0.00 | 70 | 1019.2 |
| 20260508215349 | 56 | 202 | 10.0 | 18.0 | 0.00 | 0.00 | 0.00 | 69 | 1019.1 |
| 20260508214355 | 57 | 209 | 10.0 | 18.0 | 0.00 | 0.00 | 0.00 | 69 | 1019.0 |
| 20260508213350 | 56 | 216 | 9.0 | 15.0 | 0.00 | 0.00 | 0.00 | 68 | 1019.0 |
| 20260508212349 | 56 | 240 | 9.0 | 15.0 | 0.00 | 0.00 | 0.00 | 67 | 1018.9 |
| 20260508211350 | 56 | 179 | 8.0 | 14.0 | 0.00 | 0.00 | 0.00 | 68 | 1018.9 |
| 20260508210332 | 56 | 194 | 8.0 | 15.0 | 0.00 | 0.00 | 0.00 | 67 | 1018.8 |
| 20260508205354 | 56 | 176 | 7.0 | 15.0 | 0.00 | 0.00 | 0.00 | 69 | 1018.7 |
| 20260508204403 | 56 | 192 | 9.0 | 15.0 | 0.00 | 0.00 | 0.00 | 70 | 1018.6 |
| 20260508203428 | 55 | 201 | 10.0 | 14.0 | 0.00 | 0.00 | 0.00 | 72 | 1018.6 |
| 20260508202440 | 56 | 196 | 10.0 | 14.0 | 0.00 | 0.00 | 0.00 | 69 | 1018.7 |
| 20260508195143 | 55 | 212 | 11.0 | 19.0 | 0.00 | 0.00 | 0.00 | 72 | 1018.3 |
| 20260508194128 | 55 | 184 | 11.0 | 17.0 | 0.00 | 0.00 | 0.00 | 73 | 1018.2 |
| 20260508192030 | 55 | 181 | 10.0 | 15.0 | 0.00 | 0.00 | 0.00 | 71 | 1017.9 |
| 20260508191048 | 55 | 202 | 9.0 | 14.0 | 0.00 | 0.00 | 0.00 | 72 | 1017.8 |
| 20260508190017 | 55 | 188 | 7.0 | 15.0 | 0.00 | 0.00 | 0.00 | 72 | 1017.9 |
| 20260508185013 | 55 | 213 | 9.0 | 15.0 | 0.00 | 0.00 | 0.00 | 72 | 1017.7 |
| 20260508182828 | 55 | 231 | 7.0 | 14.0 | 0.00 | 0.00 | 0.00 | 72 | 1017.5 |
| 20260508181809 | 55 | 182 | 8.0 | 14.0 | 0.00 | 0.00 | 0.00 | 73 | 1017.4 |
| 20260508180833 | 55 | 223 | 6.0 | 10.0 | 0.00 | 0.00 | 0.00 | 74 | 1017.3 |
| 20260508175833 | 54 | 217 | 5.0 | 9.0 | 0.00 | 0.00 | 0.00 | 74 | 1017.2 |
| 20260508174855 | 53 | 229 | 7.0 | 10.0 | 0.00 | 0.00 | 0.00 | 73 | 1017.1 |
| 20260508173904 | 54 | 246 | 7.0 | 13.0 | 0.00 | 0.00 | 0.00 | 75 | 1017.2 |
| 20260508172927 | 53 | 245 | 8.0 | 13.0 | 0.00 | 0.00 | 0.00 | 75 | 1017.1 |
| 20260508171917 | 53 | 246 | 9.0 | 16.0 | 0.00 | 0.00 | 0.00 | 75 | 1017.0 |
| 20260508170937 | 54 | 214 | 9.0 | 16.0 | 0.00 | 0.00 | 0.00 | 74 | 1016.8 |
| 20260508165922 | 53 | 247 | 9.0 | 15.0 | 0.00 | 0.00 | 0.00 | 74 | 1016.7 |
| 20260508163827 | 53 | 212 | 6.0 | 12.0 | 0.00 | 0.00 | 0.00 | 78 | 1016.2 |
| 20260508162824 | 53 | 205 | 7.0 | 13.0 | 0.00 | 0.00 | 0.00 | 78 | 1016.1 |
| 20260508161812 | 53 | 209 | 7.0 | 13.0 | 0.00 | 0.00 | 0.00 | 78 | 1016.1 |
| 20260508160813 | 53 | 221 | 6.0 | 12.0 | 0.00 | 0.00 | 0.00 | 79 | 1016.1 |
| 20260508155751 | 52 | 222 | 7.0 | 10.0 | 0.00 | 0.00 | 0.00 | 79 | 1015.9 |
| 20260508154726 | 52 | 215 | 5.0 | 8.0 | 0.00 | 0.00 | 0.00 | 80 | 1015.8 |
| 20260508153751 | 52 | 199 | 5.0 | 9.0 | 0.00 | 0.00 | 0.00 | 82 | 1015.8 |
| 20260508151647 | 52 | 234 | 4.0 | 9.0 | 0.00 | 0.00 | 0.00 | 82 | 1015.6 |
| 20260508150615 | 52 | 207 | 3.0 | 6.0 | 0.00 | 0.00 | 0.00 | 83 | 1015.6 |
| 20260508145640 | 52 | 259 | 4.0 | 11.0 | 0.00 | 0.00 | 0.00 | 83 | 1015.4 |
| 20260508144615 | 51 | 238 | 7.0 | 11.0 | 0.00 | 0.00 | 0.00 | 83 | 1015.5 |
| 20260508143625 | 51 | 240 | 5.0 | 9.0 | 0.00 | 0.00 | 0.00 | 86 | 1015.3 |
| 20260508142634 | 51 | 211 | 4.0 | 8.0 | 0.00 | 0.00 | 0.00 | 87 | 1015.1 |
| 20260508141606 | 50 | 164 | 2.0 | 5.0 | 0.00 | 0.00 | 0.00 | 89 | 1015.0 |
| 20260508140536 | 50 | 125 | 0.0 | 3.0 | 0.00 | 0.00 | 0.00 | 89 | 1014.9 |
| 20260508135601 | 50 | 118 | 0.0 | 2.0 | 0.00 | 0.00 | 0.00 | 90 | 1014.7 |
| 20260508133358 | 49 | 117 | 0.0 | 3.0 | 0.00 | 0.00 | 0.00 | 92 | 1014.5 |
| 20260508132418 | 49 | 119 | 1.0 | 3.0 | 0.00 | 0.00 | 0.00 | 92 | 1014.4 |
| 20260508131421 | 49 | 130 | 0.0 | 3.0 | 0.00 | 0.00 | 0.00 | 92 | 1014.4 |
| 20260508125246 | 48 | 173 | 0.0 | 4.0 | 0.00 | 0.00 | 0.00 | 93 | 1014.5 |
| 20260508121940 | 48 | 159 | 0.0 | 3.0 | 0.00 | 0.00 | 0.00 | 94 | 1014.3 |
| 20260508120952 | 48 | 143 | 0.0 | 3.0 | 0.00 | 0.00 | 0.00 | 93 | 1014.3 |
| 20260508115935 | 48 | 140 | 0.0 | 5.0 | 0.00 | 0.00 | 0.00 | 93 | 1014.3 |
| 20260508114926 | 48 | 157 | 1.0 | 5.0 | 0.00 | 0.00 | 0.00 | 93 | 1014.3 |
| 20260508113947 | 48 | 168 | 0.0 | 3.0 | 0.00 | 0.00 | 0.00 | 93 | 1014.3 |
| 20260508112943 | 48 | 151 | 0.0 | 3.0 | 0.00 | 0.00 | 0.00 | 93 | 1014.2 |
| 20260508111948 | 48 | 170 | 0.0 | 2.0 | 0.00 | 0.00 | 0.00 | 93 | 1014.0 |
| 20260508104641 | 48 | 112 | 0.0 | 3.0 | 0.00 | 0.00 | 0.00 | 94 | 1014.0 |
| 20260508102428 | 49 | 112 | 0.0 | 2.0 | 0.00 | 0.00 | 0.00 | 94 | 1013.9 |
| 20260508101445 | 48 | 128 | 0.0 | 2.0 | 0.00 | 0.00 | 0.00 | 94 | 1013.9 |
| 20260508095326 | 48 | 190 | 0.0 | 4.0 | 0.00 | 0.00 | 0.00 | 94 | 1014.0 |
| 20260508094302 | 49 | 151 | 1.0 | 3.0 | 0.00 | 0.00 | 0.00 | 93 | 1013.8 |
| 20260508093313 | 49 | 189 | 0.0 | 3.0 | 0.00 | 0.00 | 0.00 | 94 | 1013.8 |
| 20260508092313 | 48 | 150 | 0.0 | 3.0 | 0.00 | 0.00 | 0.00 | 94 | 1013.8 |
| 20260508091333 | 48 | 155 | 0.0 | 3.0 | 0.00 | 0.00 | 0.00 | 94 | 1013.9 |
| 20260508090320 | 48 | 175 | 0.0 | 2.0 | 0.00 | 0.00 | 0.00 | 93 | 1013.9 |
| 20260508085307 | 48 | 117 | 0.0 | 0.0 | 0.00 | 0.00 | 0.00 | 93 | 1013.8 |
| 20260508083144 | 48 | 128 | 0.0 | 0.0 | 0.00 | 0.00 | 0.00 | 93 | 1013.9 |
| 20260508082129 | 48 | 170 | 0.0 | 2.0 | 0.00 | 0.00 | 0.00 | 93 | 1013.9 |
| 20260508080053 | 49 | 55 | 0.0 | 0.0 | 0.00 | 0.00 | 0.00 | 92 | 1013.8 |
| 20260508075106 | 49 | 143 | 0.0 | 3.0 | 0.00 | 0.00 | 0.00 | 92 | 1014.1 |
| 20260508074127 | 49 | 163 | 0.0 | 3.0 | 0.00 | 0.00 | 0.00 | 93 | 1014.1 |
| 20260508073128 | 48 | 177 | 0.0 | 0.0 | 0.00 | 0.00 | 0.00 | 93 | 1014.2 |
| 20260508072107 | 48 | 189 | 0.0 | 1.0 | 0.00 | 0.00 | 0.00 | 92 | 1014.2 |
| 20260508064736 | 49 | 126 | 0.0 | 0.0 | 0.00 | 0.00 | 0.00 | 91 | 1014.2 |
| 20260508063753 | 49 | 110 | 0.0 | 0.0 | 0.00 | 0.00 | 0.00 | 91 | 1014.3 |
| 20260508062803 | 49 | 110 | 0.0 | 0.0 | 0.00 | 0.00 | 0.00 | 90 | 1014.3 |
| 20260508061750 | 49 | 110 | 0.0 | 0.0 | 0.00 | 0.00 | 0.00 | 90 | 1014.4 |
| 20260508060716 | 49 | 110 | 0.0 | 2.0 | 0.00 | 0.00 | 0.00 | 90 | 1014.4 |
| 20260508055729 | 49 | 119 | 0.0 | 2.0 | 0.00 | 0.00 | 0.00 | 90 | 1014.4 |
| 20260508054716 | 49 | 153 | 0.0 | 2.0 | 0.00 | 0.00 | 0.00 | 90 | 1014.5 |
| 20260508052603 | 49 | 157 | 0.0 | 0.0 | 0.00 | 0.00 | 0.00 | 90 | 1014.5 |
| 20260508051537 | 49 | 126 | 0.0 | 0.0 | 0.00 | 0.00 | 0.00 | 88 | 1014.5 |
| 20260508050509 | 50 | 126 | 0.0 | 0.0 | 0.00 | 0.00 | 0.00 | 88 | 1014.4 |
| 20260508044349 | 50 | 130 | 0.0 | 1.0 | 0.00 | 0.00 | 0.00 | 86 | 1014.4 |
| 20260508043349 | 50 | 100 | 1.0 | 3.0 | 0.00 | 0.00 | 0.00 | 85 | 1014.5 |
| 20260508042342 | 51 | 155 | 1.0 | 4.0 | 0.00 | 0.00 | 0.00 | 84 | 1014.6 |
| 20260508041328 | 52 | 183 | 2.0 | 4.0 | 0.00 | 0.00 | 0.00 | 83 | 1014.7 |
| 20260508035238 | 53 | 196 | 1.0 | 3.0 | 0.00 | 0.00 | 0.00 | 81 | 1014.7 |
| 20260508034217 | 52 | 147 | 0.0 | 2.0 | 0.00 | 0.00 | 0.00 | 81 | 1014.6 |
| 20260508033151 | 53 | 123 | 0.0 | 0.0 | 0.00 | 0.00 | 0.00 | 81 | 1014.6 |
| 20260508032125 | 53 | 127 | 0.0 | 1.0 | 0.00 | 0.00 | 0.00 | 81 | 1014.6 |
| 20260508031128 | 53 | 142 | 0.0 | 2.0 | 0.00 | 0.00 | 0.00 | 80 | 1014.6 |
| 20260508030134 | 53 | 250 | 3.0 | 9.0 | 0.00 | 0.00 | 0.00 | 79 | 1014.6 |
| 20260508025109 | 54 | 257 | 6.0 | 10.0 | 0.00 | 0.00 | 0.00 | 78 | 1014.7 |
| 20260508024103 | 54 | 263 | 6.0 | 9.0 | 0.00 | 0.00 | 0.00 | 77 | 1014.7 |
| 20260508023029 | 56 | 244 | 5.0 | 8.0 | 0.00 | 0.00 | 0.00 | 77 | 1014.9 |
| 20260508022007 | 57 | 204 | 5.0 | 9.0 | 0.00 | 0.00 | 0.00 | 76 | 1014.9 |
| 20260508021021 | 57 | 221 | 6.0 | 9.0 | 0.00 | 0.00 | 0.00 | 72 | 1014.8 |
| 20260508020012 | 59 | 215 | 6.0 | 9.0 | 0.00 | 0.00 | 0.00 | 70 | 1014.8 |
| 20260508014944 | 60 | 224 | 6.0 | 8.0 | 0.00 | 0.00 | 0.00 | 65 | 1014.8 |
| 20260508011702 | 61 | 197 | 4.0 | 8.0 | 0.00 | 0.00 | 0.00 | 68 | 1015.0 |
| 20260508010641 | 60 | 200 | 3.0 | 6.0 | 0.00 | 0.00 | 0.00 | 68 | 1015.1 |
| 20260508005703 | 60 | 208 | 4.0 | 6.0 | 0.00 | 0.00 | 0.00 | 71 | 1015.3 |
| 20260508004651 | 60 | 236 | 4.0 | 8.0 | 0.00 | 0.00 | 0.00 | 71 | 1015.3 |
| 20260508003701 | 60 | 182 | 2.0 | 9.0 | 0.00 | 0.00 | 0.00 | 70 | 1015.5 |
| 20260508002652 | 60 | 178 | 3.0 | 9.0 | 0.00 | 0.00 | 0.00 | 72 | 1015.5 |
| 20260508001633 | 60 | 164 | 5.0 | 9.0 | 0.00 | 0.00 | 0.00 | 70 | 1015.6 |
| 20260508000607 | 60 | 181 | 6.0 | 9.0 | 0.00 | 0.00 | 0.00 | 70 | 1015.5 |
| 20260507235629 | 60 | 159 | 6.0 | 13.0 | 0.00 | 0.00 | 0.00 | 69 | 1015.5 |
| 20260507234616 | 60 | 186 | 6.0 | 13.0 | 0.00 | 0.00 | 0.00 | 70 | 1015.4 |
| 20260507232451 | 61 | 197 | 3.0 | 8.0 | 0.00 | 0.00 | 0.00 | 69 | 1015.6 |
| 20260507230309 | 61 | 147 | 4.0 | 10.0 | 0.00 | 0.00 | 0.00 | 69 | 1015.8 |
| 20260507225236 | 60 | 185 | 5.0 | 10.0 | 0.00 | 0.00 | 0.00 | 71 | 1016.0 |
| 20260507224232 | 60 | 186 | 5.0 | 10.0 | 0.00 | 0.00 | 0.00 | 70 | 1016.0 |